Regional Weather Roundup
Issued by NWS

Home | Current Version | Previous Version | Text Only | Print | Product List | Glossary On
Versions: 1 2 3 4 5 6 7 8 9 10 11 12 13 14 15 16 17 18 19 20 21 22 23 24 25 26 27 28 29 30 31 32 33 34 35 36 37 38 39 40 41 42 43 44 45 46 47 48 49 50
000
ASUS45 KBOU 010807
RWRCO

WEATHER ROUNDUP FOR COLORADO
NATIONAL WEATHER SERVICE DENVER/BOULDER CO
200 AM MDT FRI AUG 01 2014

NOTE: "FAIR" INDICATES FEW OR NO CLOUDS BELOW 12000 FEET WITH NO
SIGNIFICANT WEATHER AND/OR OBSTRUCTIONS TO VISIBILITY.

COZ001>005-013-030-031-010900-
...NORTHWEST COLORADO...

CITY           SKY/WX    TMP DP  RH WIND       PRES   REMARKS
CRAIG          CLOUDY    55  49  80 E9        30.24F
HAYDEN         CLOUDY    61  45  55 E12       30.27S
MEEKER         MOCLDY    62  50  64 E5        30.25F
MOUNT WERNER   NOT AVBL
STEAMBOAT SPGS CLOUDY    55  48  78 CALM      30.30S
WALDEN         PTCLDY    46  41  81 SE6       30.41S
$$

COZ006>008-011-010900-
...WEST CENTRAL VALLEYS...

CITY           SKY/WX    TMP DP  RH WIND       PRES   REMARKS
GRAND JUNCTION CLOUDY    73  49  42 N8        30.13F
MONTROSE       MOCLDY    69  50  50 SE5       30.23R
EAGLE          MOCLDY    55  54  94 E3        30.32S
RIFLE          CLOUDY    65  50  58 SE3       30.19F
DELTA          MOCLDY    71  51  50 E8        30.18S
NUCLA          CLOUDY    68  46  45 CALM      30.28F
$$

COZ017>023-064>068-010900-
...SOUTHWEST COLORADO...

CITY           SKY/WX    TMP DP  RH WIND       PRES   REMARKS
DURANGO        PTCLDY    58  52  80 NE6       30.31F
CORTEZ         CLEAR     66  51  58 VRB5      30.26S
PAGOSA SPRINGS DRIZZLE   56  56  97 CALM      30.41F
TELLURIDE      LGT RAIN  55  48  76 W18G25    30.47R
WOLF CREEK PAS NOT AVBL
$$

COZ009-010-012-014-032>034-037-058>063-010900-
...CENTRAL COLORADO...

CITY           SKY/WX    TMP DP  RH WIND       PRES   REMARKS
ASPEN          MOCLDY    54  49  83 SW6       30.35S
BUENA VISTA    NOT AVBL
COPPER MTN     PTCLDY    46  37  71 S21       30.64F
BERTHOUD PASS  CLOUDY    36  34  93 MISG      30.68F
COTTONWOOD PAS FOG       50  46  87 CALM      30.54S VSB 1/2
GUNNISON       MOCLDY    55  46  71 NE7       30.42F
KREMMLING      MOCLDY    54  46  76 CALM      30.38S
LEADVILLE      CLOUDY    46  45  96 S5          N/A
MONARCH PASS   CLOUDY    41  37  87 E8        30.74F
SALIDA         MOCLDY    56  55  96 CALM      30.48F
SUNLIGHT       CLOUDY    52  45  76 CALM      30.56F
WILKERSON PASS CLOUDY    41  41 100 SE6       30.64F
$$

COZ069>075-010900-
...SAN LUIS VALLEY/SANGRE DE CRISTO MOUNTAINS...

CITY           SKY/WX    TMP DP  RH WIND       PRES   REMARKS
ALAMOSA        MOCLDY    53  49  86 E7        30.39F
LA VETA PASS   MOCLDY    45  43  93 CALM      30.54F FOG
SAGUACHE       CLOUDY    54  50  87 W3        30.41F
$$

COZ035-036-038>040-010900-
...NORTHERN COLORADO FRONT RANGE...

CITY           SKY/WX    TMP DP  RH WIND       PRES   REMARKS
DENVER INTL AP CLEAR     61  54  77 SW7       30.27F
DMNS CITY PARK   N/A     59  53  82 S3        30.27S
AURORA         PTCLDY    58  54  87 S6        30.30S
FRONT RANGE AP CLEAR     63  55  77 SW7       30.29S
ERIE MUNI ARPT CLEAR     56  53  90 CALM      30.26S
BOULDER MUN AP CLEAR     63  45  51 SW6       30.26F
CENTENNIAL     CLEAR     57  53  86 SE5       30.30F
BROOMFIELD     CLEAR     59  50  72 SW3       30.29F
FORT COLLINS   PTCLDY    61  48  63 CALM      30.26S
LONGMONT       PTCLDY    59  52  77 CALM      30.26F
$$

COZ041-046-047-076>085-087-088-010900-
...PIKES PEAK/PALMER DIVIDE AND SOUTHERN FOOTHILLS...

CITY           SKY/WX    TMP DP  RH WIND       PRES   REMARKS
COLO. SPRINGS  MOCLDY    59  55  87 CALM      30.34F
A. F. ACADEMY  MOCLDY    55  54  99 N5        30.36S
ELLICOTT       MOCLDY    58  53  84 CALM      30.33F
FALCON         MOCLDY    53  53  97 W5        30.39R FOG
FORT CARSON    CLOUDY    61  54  78 NW1       30.31F
LIMON          PTCLDY    52  51  97 N5        30.29S
MONUMENT HILL  PTCLDY    52  50  93 S6        30.37S
TRINIDAD       MOCLDY    60  56  86 W8        30.31F
$$

COZ042>045-048>051-090-091-010900-
...NORTHEAST COLORADO...

CITY           SKY/WX    TMP DP  RH WIND       PRES   REMARKS
GREELEY ARPT   NOT AVBL
AKRON          CLEAR     62  55  77 SW9       30.23R
BURLINGTON     CLEAR     60  51  72 W8        30.21S
WRAY             N/A     63  54  74 W6        30.18S
STERLING       CLEAR     61  59  94 W6        30.19R
HOLYOKE        CLEAR     61  55  82 CALM      30.18S
FORT MORGAN    PTCLDY    62  48  61 NW9       30.23S
$$

COZ086-089-092>099-010900-
...SOUTHEAST COLORADO...

CITY           SKY/WX    TMP DP  RH WIND       PRES   REMARKS
PUEBLO         CLOUDY    64  62  93 W3        30.25F
LA JUNTA       CLOUDY    63  59  87 W7        30.23S
LAMAR          PTCLDY    59  56  89 W6        30.19S
SPRINGFIELD      N/A     60  56  86 SW6       30.24S
$$


USA.gov is the U.S. government's official web portal to all federal, state and local government web resources and services.